Date String (YYYY-MM-DD hh:mm:ss) UTC,Instrument flags,Ambient pressure (hPa),Sample flow (lpm),Bypass flow (lpm),Sample temperature (°C),Ambient temperature (°C),ASC tube jacket temperature (°C),LED temperature (°C),Box temperature (°C),Sample RH (%),Span deviation,Mass concentration (μg/m³),Mass concentration (μg/m³),Mass concentration (μg/m³)
DateTimeUTC,F1_M11,P_M11,Q1_M11,Q2_M11,T1_M11,T2_M11,T3_M11,T4_M11,T5_M11,U1_M11,ZSPAN_M11,X0_M11,X2_M11,X1_M11
2022-11-03 07:00:00,,0816.3,5.00,0.00,28.1,26.6,00.0,36.9,30.0,06.8,0000.0,0007.33,0002.15,0001.43
2022-11-03 07:01:00,,0816.4,4.99,0.00,28.1,26.6,00.0,36.9,30.0,06.8,0000.0,0007.37,0002.17,0001.43
2022-11-03 07:02:00,,0816.4,4.99,0.00,28.1,26.6,00.0,36.9,29.9,06.9,0000.0,0007.71,0002.19,0001.43
2022-11-03 07:03:00,,0816.4,5.01,0.00,28.1,26.6,00.0,36.9,29.9,06.9,0000.0,0007.57,0002.22,0001.44
2022-11-03 07:04:00,,0816.3,5.01,0.00,28.1,26.6,00.0,36.9,30.0,06.8,0000.0,0007.58,0002.21,0001.43
2022-11-03 07:05:00,,0816.3,5.00,0.00,28.1,26.6,00.0,36.9,30.0,06.7,0000.0,0007.90,0002.20,0001.42
2022-11-03 07:06:00,,0816.3,5.00,0.00,28.1,26.6,00.0,36.9,30.0,06.5,0000.0,0008.36,0002.18,0001.40
2022-11-03 07:07:00,,0816.3,5.00,0.00,28.1,26.6,00.0,36.9,30.0,06.4,0000.0,0006.95,0002.12,0001.38
2022-11-03 07:08:00,,0816.3,4.99,0.00,28.1,26.6,00.0,36.9,30.0,06.2,0000.0,0007.14,0002.03,0001.34
2022-11-03 07:09:00,,0816.3,5.00,0.00,28.1,26.6,00.0,36.9,29.9,06.1,0000.0,0007.57,0001.98,0001.31
2022-11-03 07:10:00,,0816.3,5.00,0.00,28.1,26.6,00.0,36.9,29.9,06.6,0000.0,0007.86,0002.01,0001.29
2022-11-03 07:11:00,,0816.4,4.99,0.00,28.1,26.6,00.0,36.9,30.0,07.1,0000.0,0008.16,0002.02,0001.31
2022-11-03 07:12:00,,0816.4,5.01,0.00,28.1,26.6,00.0,36.9,29.9,07.3,0000.0,0008.48,0002.06,0001.33
2022-11-03 07:13:00,,0816.4,5.01,0.00,28.1,26.6,00.0,36.9,29.9,07.3,0000.0,0009.61,0002.11,0001.35
2022-11-03 07:14:00,,0816.4,5.00,0.00,28.1,26.6,00.0,36.9,29.9,07.3,0000.0,0009.90,0002.11,0001.36
2022-11-03 07:15:00,,0816.3,4.98,0.00,28.1,26.6,00.0,36.9,30.0,07.3,0000.0,0010.34,0002.14,0001.37
2022-11-03 07:16:00,,0816.3,5.01,0.00,28.1,26.6,00.0,36.9,30.0,07.3,0000.0,0010.88,0002.13,0001.39
2022-11-03 07:17:00,,0816.3,5.01,0.00,28.1,26.6,00.0,36.9,30.0,07.1,0000.0,0011.88,0002.23,0001.43
2022-11-03 07:18:00,,0816.3,4.99,0.00,28.1,26.6,00.0,36.9,30.0,07.0,0000.0,0012.70,0002.29,0001.44
2022-11-03 07:19:00,,0816.3,4.99,0.00,28.1,26.6,00.0,36.9,30.0,06.7,0000.0,0012.33,0002.30,0001.47
2022-11-03 07:20:00,,0816.4,4.99,0.00,28.1,26.6,00.0,36.9,30.0,06.7,0000.0,0012.64,0002.30,0001.48
2022-11-03 07:21:00,,0816.4,5.01,0.00,28.1,26.6,00.0,36.9,30.0,06.6,0000.0,0012.59,0002.32,0001.50
2022-11-03 07:22:00,,0816.4,5.01,0.00,28.1,26.6,00.0,36.9,30.0,06.7,0000.0,0012.08,0002.27,0001.48
2022-11-03 07:23:00,,0816.4,5.00,0.00,28.1,26.6,00.0,36.9,29.9,06.8,0000.0,0011.86,0002.25,0001.46
2022-11-03 07:24:00,,0816.4,5.00,0.00,28.1,26.6,00.0,36.9,29.9,06.9,0000.0,0011.09,0002.23,0001.45
2022-11-03 07:25:00,,0816.3,4.99,0.00,28.1,26.6,00.0,36.9,29.9,06.6,0000.0,0010.45,0002.18,0001.43
2022-11-03 07:26:00,,0816.3,5.00,0.00,28.1,26.6,00.0,36.9,29.9,06.9,0000.0,0010.29,0002.14,0001.41
2022-11-03 07:27:00,,0816.2,5.01,0.00,28.1,26.5,00.0,36.9,29.9,07.0,0000.0,0009.81,0002.11,0001.39
2022-11-03 07:28:00,,0816.2,5.01,0.00,28.1,26.5,00.0,36.9,29.9,06.9,0000.0,0008.75,0002.04,0001.37
2022-11-03 07:29:00,,0816.2,4.99,0.00,28.1,26.5,00.0,36.9,29.9,06.8,0000.0,0008.17,0002.00,0001.36
2022-11-03 07:30:00,,0816.2,5.00,0.00,28.1,26.5,00.0,36.9,29.9,06.7,0000.0,0008.19,0002.02,0001.36
2022-11-03 07:31:00,,0816.1,4.99,0.00,28.1,26.5,00.0,36.9,29.9,06.7,0000.0,0007.54,0002.04,0001.38
2022-11-03 07:32:00,,0816.1,5.00,0.00,28.1,26.5,00.0,36.9,29.9,06.7,0000.0,0007.00,0001.96,0001.38
2022-11-03 07:33:00,,0816.1,4.99,0.00,28.0,26.5,00.0,36.9,29.9,06.6,0000.0,0007.40,0001.92,0001.38
2022-11-03 07:34:00,,0816.1,5.00,0.00,28.0,26.5,00.0,36.9,29.9,06.6,0000.0,0007.43,0001.88,0001.37
2022-11-03 07:35:00,,0816.1,5.00,0.00,28.0,26.5,00.0,36.9,29.9,06.6,0000.0,0006.87,0001.81,0001.34
2022-11-03 07:36:00,,0816.1,5.00,0.00,28.0,26.5,00.0,36.9,29.8,06.5,0000.0,0006.70,0001.82,0001.32
2022-11-03 07:37:00,,0816.2,5.00,0.00,28.0,26.5,00.0,36.9,29.9,06.5,0000.0,0005.99,0001.76,0001.29
2022-11-03 07:38:00,,0816.2,5.00,0.00,28.0,26.4,00.0,36.9,29.9,06.4,0000.0,0005.44,0001.69,0001.27
2022-11-03 07:39:00,,0816.2,5.00,0.00,28.0,26.5,00.0,36.9,29.8,06.4,0000.0,0004.89,0001.65,0001.25
2022-11-03 07:40:00,,0816.3,5.00,0.00,28.0,26.4,00.0,36.9,29.8,06.5,0000.0,0004.59,0001.68,0001.23
2022-11-03 07:41:00,,0816.3,5.00,0.00,28.0,26.4,00.0,36.9,29.8,06.5,0000.0,0004.65,0001.67,0001.21
2022-11-03 07:42:00,,0816.4,5.00,0.00,28.0,26.4,00.0,36.9,29.8,06.4,0000.0,0005.33,0001.62,0001.18
2022-11-03 07:43:00,,0816.5,5.00,0.00,28.0,26.4,00.0,36.9,29.8,06.5,0000.0,0007.06,0001.67,0001.16
2022-11-03 07:44:00,,0816.5,5.02,0.00,28.0,26.4,00.0,36.9,29.8,06.7,0000.0,0006.43,0001.70,0001.15
2022-11-03 07:45:00,,0816.5,5.00,0.00,28.0,26.4,00.0,36.8,29.8,06.9,0000.0,0006.13,0001.71,0001.14
2022-11-03 07:46:00,,0816.5,5.00,0.00,28.0,26.3,00.0,36.8,29.8,06.7,0000.0,0006.22,0001.70,0001.14
2022-11-03 07:47:00,,0816.6,4.99,0.00,28.0,26.3,00.0,36.8,29.8,06.6,0000.0,0006.17,0001.67,0001.15
2022-11-03 07:48:00,,0816.5,4.99,0.00,28.0,26.3,00.0,36.8,29.8,06.5,0000.0,0006.21,0001.68,0001.16
2022-11-03 07:49:00,,0816.5,5.00,0.00,27.9,26.3,00.0,36.8,29.8,06.7,0000.0,0007.21,0001.70,0001.16
2022-11-03 07:50:00,,0816.4,5.00,0.00,27.9,26.3,00.0,36.8,29.8,06.7,0000.0,0006.86,0001.67,0001.16
2022-11-03 07:51:00,,0816.5,5.00,0.00,27.9,26.3,00.0,36.8,29.8,06.7,0000.0,0006.05,0001.61,0001.16
2022-11-03 07:52:00,,0816.4,5.01,0.00,27.9,26.3,00.0,36.8,29.8,06.9,0000.0,0005.96,0001.59,0001.16
2022-11-03 07:53:00,,0816.5,5.00,0.00,27.9,26.3,00.0,36.8,29.7,07.0,0000.0,0005.55,0001.63,0001.17
2022-11-03 07:54:00,,0816.4,5.00,0.00,27.9,26.3,00.0,36.8,29.7,07.0,0000.0,0004.35,0001.68,0001.19
2022-11-03 07:55:00,,0816.4,4.99,0.00,27.9,26.3,00.0,36.8,29.7,07.0,0000.0,0005.06,0001.69,0001.21
2022-11-03 07:56:00,,0816.4,5.00,0.00,27.9,26.2,00.0,36.8,29.7,07.1,0000.0,0005.94,0001.75,0001.23
2022-11-03 07:57:00,,0816.4,5.00,0.00,27.9,26.2,00.0,36.8,29.7,07.2,0000.0,0006.26,0001.80,0001.27
2022-11-03 07:58:00,,0816.4,5.00,0.00,27.9,26.2,00.0,36.8,29.7,07.2,0000.0,0006.26,0001.82,0001.29
2022-11-03 07:59:00,,0816.4,5.00,0.00,27.9,26.2,00.0,36.8,29.7,07.1,0000.0,0007.52,0001.85,0001.29
